Regional Weather Roundup
Issued by NWS

Home | Current Version | Previous Version | Graphics & Text | Print | Product List | Glossary On
Versions: 1 2 3 4 5 6 7 8 9 10 11 12 13 14 15 16 17 18 19 20 21 22 23 24 25 26 27 28 29 30 31 32 33 34 35 36 37 38 39 40 41 42 43 44 45 46 47 48 49 50
000
ASUS43 KLSX 240507
RWRMO

WEATHER SUMMARY FOR MISSOURI
NATIONAL WEATHER SERVICE SPRINGFIELD MO
1200 AM CDT SUN MAY 24 2015

NOTE: "FAIR" INDICATES FEW OR NO CLOUDS BELOW 12,000 FEET WITH NO
       SIGNIFICANT WEATHER AND/OR OBSTRUCTIONS TO VISIBILITY.
       CURRENT SKY AND/OR WEATHER CONDITIONS ARE NOT AVAILABLE FOR
       CHILLICOTHE AND FARMINGTON.

MOZ001>031-035>038-043-044-053-054-240600-
...NORTHERN AND WESTERN MISSOURI...

CITY           SKY/WX    TMP DP  RH WIND       PRES   REMARKS
KANSAS CTY INT RAIN      61  60  97 E14G21    30.02F FOG
KANSAS C DTWN  HVY RAIN  62  59  90 E8        30.01F FOG
LEE`S SUMMIT   HVY RAIN  62  60  93 SE12      30.02F FOG
ST JOSEPH      LGT RAIN  61  59  93 E16       30.00F
CHILLICOTHE      N/A     62  60  93 SE5       30.10R
KIRKSVILLE     CLOUDY    65  55  70 SE5       30.11S

$$
MOZ066>068-077>081-088>096-101>105-240600-
...SOUTHWEST MISSOURI...

CITY           SKY/WX    TMP DP  RH WIND       PRES   REMARKS
SPRINGFIELD    CLOUDY    68  58  70 SE21G29   30.04R
JOPLIN         RAIN      67  64  90 SE12      29.98F FOG

$$
MOZ032>034-039>042-045>050-055>058-069>072-240600-
...CENTRAL MISSOURI...

CITY           SKY/WX    TMP DP  RH WIND       PRES   REMARKS
COLUMBIA       CLOUDY    66  53  63 SE8       30.09F
JEFFERSON CITY CLOUDY    67  52  58 SE8       30.08F
ROLLA          CLOUDY    63  52  67 SE10      30.09F
SEDALIA        LGT RAIN  63  58  83 E5        30.09R
WARRENSBURG    RAIN      61  59  94 E9        30.04F
OSAGE BEACH    CLOUDY    66  54  63 SE8       30.07S

$$
MOZ051-052-059>065-240600-
...EAST CENTRAL MISSOURI...

CITY           SKY/WX    TMP DP  RH WIND       PRES   REMARKS
ST LOUIS INTL  CLOUDY    70  51  51 E7        30.14S
SPIRIT OF STL  CLOUDY    63  53  70 CALM      30.11F
ST CHARLES     CLOUDY    66  54  65 SE8       30.12F

$$
MOZ072>076-082>087-097>100-106>115-240600-
...SOUTH CENTRAL AND SOUTHEAST MISSOURI...

CITY           SKY/WX    TMP DP  RH WIND       PRES   REMARKS
CAPE GIRARDEAU PTCLDY    63  57  81 E6        30.14F
FARMINGTON     CLOUDY    66  54  63 S8        30.17F
POPLAR BLUFF   CLOUDY    68  57  68 SE5       30.11F
WEST PLAINS    MOCLDY    65  54  67 SE3       30.12F

$$



USA.gov is the U.S. government's official web portal to all federal, state and local government web resources and services.